Tracking 18851 objects as of 24-Nov-2017
HD Live streaming from Space Station
objects crossing your sky now

ASTRA 2A

Track ASTRA 2A now!
ASTRA 2A is classified as:


NORAD ID: 25462
Int'l Code: 1998-050A
Perigee: 35,783.0 km
Apogee: 35,802.2 km
Inclination: 0.1 °
Period: 1,436.0 minutes
Semi major axis: 42163 km
RCS: 1.1769 m2 (large)
Launch date: August 30, 1998
Source: SOCIETE EUROPEENNE DES SATELLITES (SES)
Launch site: TYURATAM MISSILE AND SPACE COMPLEX (TTMTR)

Voice and video communications to Europe; 32 Ku-band for first five years, 28 after.
aabbcc
Your satellite tracking list
Your tracking list is empty




NASA's NSSDC Master Catalog

Two Line Element Set (TLE):
1 25462U 98050A   17328.27268240 -.00000353 +00000-0 +00000-0 0  9995
2 25462 000.0605 252.3357 0002276 339.9169 042.8354 01.00275856015013
Source of the keplerian elements: AFSPC